Location: Asheville, NC
(35.6000°N, 82.5500°W)
Time: 17:17:06
(UTC-05:00)

SO-50 - Pass Details

Date: 09 January 2018
Orbit: 610 x 677 km, 64.6° (Epoch: 20 January)

Event Time Altitude Azimuth Distance (km) Brightness Sun altitude
Rises 18:12:19 0° 327° (NNW) 2,976 ? -7.8°
Reaches altitude 10° 18:14:37 10° 325° (NW) 2,071 ? -8.2°
Maximum altitude 18:19:17 69° 243° (WSW) 710 ? -9.1°
Drops below altitude 10° 18:24:01 10° 160° (SSE) 2,090 ? -10.0°
Sets 18:26:21 0° 158° (SSE) 3,005 ? -10.4°
